Regional Weather Roundup
Issued by NWS Columbia, SC

Home | Current Version | Previous Version | Text Only | Print | Product List | Glossary On
Versions: 1 2 3 4 5 6 7 8 9 10 11 12 13 14 15 16 17 18 19 20 21 22 23 24 25 26 27 28 29 30 31 32 33 34 35 36 37 38 39 40 41 42 43 44 45 46 47 48 49 50
000
ASUS42 KCAE 281210
RWRCAE
REGIONAL WEATHER ROUNDUP
NATIONAL WEATHER SERVICE COLUMBIA SC
700 AM EST FRI NOV 28 2014

NOTE: "FAIR" INDICATES FEW OR NO CLOUDS BELOW 12,000 FEET WITH NO
SIGNIFICANT WEATHER AND/OR OBSTRUCTIONS TO VISIBILITY.

NOT ALL STATIONS ARE QUALITY CONTROLLED BY THE NATIONAL
WEATHER SERVICE. USE DATA WITH CAUTION...ESPECIALLY
DEWPOINT OBSERVATIONS.

SCZ001>056-GAZ040-063>065-077-281300-
...UPSTATE SOUTH CAROLINA...

CITY           SKY/WX    TMP DP  RH WIND       PRES   REMARKS
ANDERSON       CLEAR     26  22  84 CALM      30.36R
6HR MIN TEMP:  25; 6HR MAX TEMP:  34;

LIBERTY        FAIR      23  22  95 CALM      30.33R
6HR MIN TEMP:  23; 6HR MAX TEMP:  58;

SPARTANBURG    FAIR      30  21  69 CALM      30.34R
CLEMSON        CLEAR     32  22  66 SW3       30.36R
6HR MIN TEMP:  30; 6HR MAX TEMP:  36;

GREENVILLE     CLEAR     30  16  56 N6        30.34R WCI  24
6HR MIN TEMP:  30; 6HR MAX TEMP:  34;

GREENWOOD      CLEAR     24  21  88 CALM      30.38R
6HR MIN TEMP:  24; 6HR MAX TEMP:  31;

GREER          CLEAR     28  18  66 NE3       30.33R
6HR MIN TEMP:  26; 6HR MAX TEMP:  33;

ROCK HILL      CLEAR     27  20  75 CALM      30.35R
6HR MIN TEMP:  27; 6HR MAX TEMP:  34;

CHESTER        FAIR      32  21  64 NW6       30.36R WCI  26


...CENTRAL SOUTH CAROLINA...

CITY           SKY/WX    TMP DP  RH WIND       PRES   REMARKS
COLUMBIA APT   CLEAR     33  24  69 NW3       30.37R
6HR MIN TEMP:  33; 6HR MAX TEMP:  40;

COLUMBIA OWENS CLEAR     29  25  85 CALM      30.38R
6HR MIN TEMP:  29; 6HR MAX TEMP:  39;

DARLINGTON     CLEAR     30  19  64 N5        30.36R WCI  25
6HR MIN TEMP:  28; 6HR MAX TEMP:  34;

FLORENCE       CLEAR     30  24  78 NW5       30.35R WCI  25
6HR MIN TEMP:  30; 6HR MAX TEMP:  37;

MCENTIRE ANGB  CLEAR     27  24  87 CALM      30.37R
6HR MIN TEMP:  26; 6HR MAX TEMP:  32;

ORANGEBURG     CLEAR     30  25  81 CALM      30.37R
6HR MIN TEMP:  30; 6HR MAX TEMP:  36;

SUMTER SHAW    CLEAR     29  26  88 CALM      30.35R
6HR MIN TEMP:  28; 6HR MAX TEMP:  36;

NEWBERRY       FAIR      27  23  86 CALM      30.40R
AIKEN          FAIR      32  27  80 N3        30.39R
BARNWELL         N/A     30  28  93 CALM      30.38R
CAMDEN         FAIR      27  25  93 CALM      30.37R
LANCASTER      FAIR      28  25  86 CALM      30.36R
WINNSBORO      FAIR      28  25  86 N3        30.35R


...EASTERN AND COASTAL SOUTH CAROLINA...

CITY           SKY/WX    TMP DP  RH WIND       PRES   REMARKS
MYRTLE BEACH   CLEAR     34  27  75 NW9       30.35R WCI  26
N MYRTLE BCH   CLEAR     32  27  81 N5        30.34R WCI  27
6HR MIN TEMP:  32; 6HR MAX TEMP:  38;

CONWAY         FAIR      30  30 100 CALM      30.35S
MARION         FAIR      32  27  80 CALM      30.36R
FLORENCE       CLEAR     30  24  78 NW5       30.35R WCI  25
6HR MIN TEMP:  30; 6HR MAX TEMP:  37;

DARLINGTON     CLEAR     30  19  64 N5        30.36R WCI  25
6HR MIN TEMP:  28; 6HR MAX TEMP:  34;

CHARLESTON APT CLEAR     36  24  62 N9        30.36R WCI  29
6HR MIN TEMP:  33; 6HR MAX TEMP:  37;

MOUNT PLEASANT FAIR      34  32  93 N5        30.36R WCI  30
WALTERBORO     SUNNY     32 N/A N/A N3        30.38R
BEAUFORT       CLEAR     35  29  78 N8        30.36R WCI  29
6HR MIN TEMP:  35; 6HR MAX TEMP:  41;



...EASTERN GEORGIA...

CITY           SKY/WX    TMP DP  RH WIND       PRES   REMARKS
AUGUSTA BUSH F CLEAR     25  24  96 CALM      30.38S
6HR MIN TEMP:  24; 6HR MAX TEMP:  36;

AUGUSTA DANIEL CLEAR     32  26  78 CALM      30.37R
6HR MIN TEMP:  31; 6HR MAX TEMP:  39;

THOMSON        CLEAR     28  28 100 CALM      30.42R
6HR MIN TEMP:  28; 6HR MAX TEMP:  33;

WASHINGTON     FAIR      34  32  93 NW5       30.37R WCI  30
SYLVANIA       SUNNY     33  32  94 CALM      30.38R
6HR MIN TEMP:  33; 6HR MAX TEMP:  39;

STATESBORO     CLEAR     32  30  92 N3        30.38R
6HR MIN TEMP:  32; 6HR MAX TEMP:  37;

SAVANNAH       CLEAR     35  28  75 N7        30.37R WCI  29
6HR MIN TEMP:  35; 6HR MAX TEMP:  41;



...SOUTHERN NORTH CAROLINA...

CITY           SKY/WX    TMP DP  RH WIND       PRES   REMARKS
CHARLOTTE      CLEAR     29  18  63 NW6       30.34R WCI  23
6HR MIN TEMP:  25; 6HR MAX TEMP:  33;

MONROE         CLEAR     26  21  81 CALM      30.33R
6HR MIN TEMP:  26; 6HR MAX TEMP:  35;

WADESBORO      SUNNY     28  21  74 CALM      30.36R
6HR MIN TEMP:  26; 6HR MAX TEMP:  34;

ROCKINGHAM     SUNNY     30  22  73 NW5       30.35R WCI  25
6HR MIN TEMP:  29; 6HR MAX TEMP:  34;

RUTHERFORDTON  CLEAR     26  17  70 N3        30.34R
6HR MIN TEMP:  26; 6HR MAX TEMP:  32;

ASHEVILLE      CLEAR     24  14  65 NW7       30.31R WCI  16
6HR MIN TEMP:  24; 6HR MAX TEMP:  28;


$$


USA.gov is the U.S. government's official web portal to all federal, state and local government web resources and services.